Weather History for George, South Africa

Change the Weather History Date:

Wednesday, November 3, 2010

  Actual Average Record
Temperature  
Mean Temperature 65 °F -  
Max Temperature 71 °F 69 °F 77 °F (2012)
Min Temperature 59 °F 53 °F 50 °F (2003)
Growing Degree Days 15 (Base 50)    
Moisture  
Dew Point 62 °F    
Average Humidity 97    
Maximum Humidity 100    
Minimum Humidity 78    
Precipitation  
Precipitation 0.04 in - - ()
Sea Level Pressure  
Sea Level Pressure 29.65 in    
Wind  
Wind Speed 5 mph ()    
Max Wind Speed 13 mph    
Max Gust Speed -    
Visibility 4.8 miles    
Events Fog , Rain    
Averages and records for this station are not official NWS values.
T = Trace of Precipitation, MM = Missing Value Source: Averaged Metar Reports

Daily Weather History Graph

Daily Weather History Graph

Search for Another Location

Airport:

Trip Planner

Search our weather history database for the weather conditions in past years. The results will help you decide how hot, cold, wet, or windy it might be!

Date:

Astronomy

Nov. 03, 2010 Rise Set
Actual Time 5:28 AM SAST 7:00 PM SAST
Civil Twilight 5:01 AM SAST 7:27 PM SAST
Nautical Twilight 4:29 AM SAST 7:59 PM SAST
Astronomical Twilight 3:55 AM SAST 8:32 PM SAST
Moon 3:14 AM SAST (11/3) 4:08 PM SAST (11/3)
Length of Visible Light 14h 25m
Length of Day
13h 32m
Waning Crescent, 11% of the Moon is Illuminated
Nov 3
Waning Crescent
Nov 6
New
Nov 13
First Quarter
Nov 21
Full
Nov 28
Last Quarter

Hourly Weather History & Observations

Time (SAST) Temp. Dew Point Humidity Pressure Visibility Wind Dir Wind Speed Gust Speed Precip Events Conditions
12:00 AM 64.4 °F 64.4 °F 100% 29.71 in 5.0 mi West 3.5 mph - N/A   Mostly Cloudy
1:00 AM 64.4 °F 64.4 °F 100% 29.68 in 5.0 mi WNW 4.6 mph - N/A   Overcast
2:00 AM 64 °F 64 °F 99% 29.65 in 6 mi NNW 3.5 mph - -  
2:00 AM 64.4 °F 64.4 °F 100% 29.65 in 5.6 mi NW 3.5 mph - N/A   Unknown
3:00 AM 62.6 °F 62.6 °F 100% 29.62 in 5.6 mi Variable 1.2 mph - N/A   Partly Cloudy
4:00 AM 60.8 °F 60.8 °F 100% 29.62 in 6.2 mi NW 3.5 mph - N/A   Scattered Clouds
5:00 AM 61 °F 60 °F 97% 29.63 in 6 mi NW 3.5 mph - -   Mostly Cloudy
5:00 AM 60.8 °F 60.8 °F 100% 29.62 in 6.2 mi WNW 3.5 mph - N/A Fog Mostly Cloudy
6:00 AM 62.6 °F 60.8 °F 94% 29.62 in 6.2 mi NW 4.6 mph - N/A   Mostly Cloudy
7:00 AM 64.4 °F 62.6 °F 94% 29.65 in 6.2 mi NW 5.8 mph - N/A   Mostly Cloudy
8:00 AM 67 °F 64 °F 89% 29.67 in 6 mi West 4.6 mph - -   Mostly Cloudy
8:00 AM 66.2 °F 64.4 °F 94% 29.65 in 6.2 mi WSW 5.8 mph - N/A   Mostly Cloudy
9:00 AM 71.6 °F 64.4 °F 78% 29.65 in 6.2 mi Variable 2.3 mph - N/A   Mostly Cloudy
10:00 AM 68.0 °F 66.2 °F 94% 29.65 in 6.2 mi SSW 12.7 mph - N/A Fog Mostly Cloudy
11:00 AM 66 °F 65 °F 95% 29.66 in 6 mi SW 11.5 mph - -   Mostly Cloudy
11:00 AM 66.2 °F 66.2 °F 100% 29.65 in 6.2 mi SSW 9.2 mph - N/A   Mostly Cloudy
12:00 PM 69.8 °F 64.4 °F 83% 29.62 in 6.2 mi South 6.9 mph - N/A   Mostly Cloudy
1:00 PM 64.4 °F 62.6 °F 94% 29.62 in 6.2 mi South 11.5 mph - N/A   Mostly Cloudy
2:00 PM 64 °F 63 °F 96% 29.63 in 2 mi South 6.9 mph - - Rain Light Rain
2:00 PM 64.4 °F 62.6 °F 94% 29.62 in - South 6.9 mph - N/A Rain Light Rain
3:00 PM 62.6 °F 62.6 °F 100% 29.62 in 1.4 mi SSW 8.1 mph - N/A Rain Light Rain
4:00 PM 62.6 °F 62.6 °F 100% 29.62 in 2.8 mi SSW 9.2 mph - N/A Rain Light Rain
5:00 PM 61 °F 61 °F 98% 29.64 in 3 mi South 5.8 mph - - Rain Light Rain
5:00 PM 60.8 °F 60.8 °F 100% 29.62 in 2.8 mi South 5.8 mph - N/A Rain Light Rain
6:00 PM 60.8 °F 60.8 °F 100% 29.65 in 3.7 mi South 5.8 mph - N/A   Mostly Cloudy
7:00 PM 59.0 °F 59.0 °F 100% 29.68 in 1.9 mi South 4.6 mph - N/A Rain Light Rain
8:00 PM 59 °F 59 °F 100% 29.70 in 3 mi 2.3 mph - - Rain Light Rain
8:00 PM 59.0 °F 59.0 °F 100% 29.68 in 3.1 mi Variable 2.3 mph - N/A Rain Light Rain
9:00 PM 59.0 °F 59.0 °F 100% 29.71 in 5.6 mi NE 6.9 mph - N/A   Mostly Cloudy
10:00 PM 59.0 °F 59.0 °F 100% 29.71 in 3.1 mi ESE 3.5 mph - N/A   Partly Cloudy
11:00 PM 59.0 °F 59.0 °F 100% 29.71 in 3.1 mi North 3.5 mph - N/A   Scattered Clouds